Terminal Aerodrome Forecast
Issued by NWS Aberdeen, SD

Home | Current Version | Previous Version | Text Only | Print | Product List | Glossary On
Versions: 1 2 3 4 5 6 7 8 9 10 11 12 13 14 15 16 17 18 19 20 21 22 23 24 25 26 27 28 29 30 31 32 33 34 35 36 37 38 39 40 41 42 43 44 45 46 47 48 49 50
000
FTUS43 KABR 232000 AAA
TAFABR
TAF AMD
KABR 232041Z 2321/2418 16016G23KT 6SM -RA BR FEW010 SCT015 OVC050
     FM240300 14009KT P6SM OVC015
     FM240900 15006KT 3SM BR OVC007
     FM241500 19007KT P6SM BKN010=

USA.gov is the U.S. government's official web portal to all federal, state and local government web resources and services.